Location: Bremen
(53.0793°N, 8.8017°E)
Time: 08:18:15
(UTC+02:00)

ISS - Visible Passes

Search period start: 15 May 2021 00:00
Search period end: 25 May 2021 00:00
Orbit: 417 x 422 km, 51.6° (Epoch: 14 May)

Date Brightness Start Highest point End Pass type
(mag) Time Alt. Az. Time Alt. Az. Time Alt. Az.
15 May -3.7 00:27:34 10° WSW 00:30:52 54° SSE 00:34:11 10° E visible
15 May -3.9 02:04:11 10° W 02:07:33 68° S 02:10:55 10° ESE visible
15 May -3.1 03:41:01 10° W 03:44:06 33° SSW 03:47:11 10° SE visible
15 May -2.0 22:05:24 10° S 22:07:16 14° SE 22:09:09 10° ESE visible
15 May -3.5 23:40:15 10° SW 23:43:29 44° SSE 23:46:43 10° E visible
16 May -3.9 01:16:46 10° W 01:20:08 70° S 01:23:30 10° E visible
16 May -3.4 02:53:32 10° W 02:56:45 42° SSW 02:59:58 10° SE visible
16 May -1.9 04:31:15 10° WSW 04:32:57 13° SW 04:34:37 10° S visible
16 May -3.1 22:53:01 10° SW 22:56:07 34° SSE 22:59:14 10° E visible
17 May -3.9 00:29:20 10° WSW 00:32:41 69° S 00:36:04 10° E visible
17 May -3.7 02:06:04 10° W 02:09:22 52° SSW 02:12:40 10° ESE visible
17 May -2.3 03:43:17 10° W 03:45:42 18° SW 03:48:07 10° SSE visible
17 May -2.7 22:05:55 10° SSW 22:08:47 26° SSE 22:11:41 10° E visible
17 May -3.8 23:41:55 10° WSW 23:45:15 63° S 23:48:37 10° E visible
18 May -3.8 01:18:37 10° W 01:21:57 61° S 01:22:53 41° SE visible
18 May -1.3 02:55:35 10° W 02:55:46 11° W 02:55:46 11° W visible
18 May -3.7 22:54:33 10° WSW 22:57:50 54° SSE 23:01:10 10° E visible
19 May -3.9 00:31:10 10° W 00:34:32 67° S 00:36:27 23° ESE visible
19 May -2.0 02:08:00 10° W 02:09:22 20° WSW 02:09:22 20° WSW visible
19 May -3.4 22:07:13 10° SW 22:10:26 44° SSE 22:13:40 10° E visible
19 May -3.9 23:43:43 10° W 23:47:05 70° S 23:50:16 11° E visible
20 May -3.1 01:20:30 10° W 01:23:11 38° SW 01:23:11 38° SW visible
20 May -3.8 22:56:16 10° WSW 22:59:38 69° S 23:02:59 10° E visible
21 May -3.6 00:33:00 10° W 00:36:18 52° SSW 00:37:05 41° SSE visible
21 May -3.7 22:08:50 10° WSW 22:12:11 63° S 22:15:32 10° E visible
21 May -3.8 23:45:32 10° W 23:48:53 61° S 23:51:02 20° ESE visible
22 May -1.9 01:22:30 10° W 01:23:57 19° WSW 01:23:57 19° WSW visible
22 May -3.8 22:58:04 10° W 23:01:26 67° S 23:04:47 10° ESE visible
23 May -2.9 00:34:55 10° W 00:37:56 32° SSW 00:37:56 32° SSW visible
23 May -3.3 23:47:23 10° W 23:50:36 41° SSW 23:51:56 27° SSE visible
24 May -3.5 22:59:53 10° W 23:03:10 51° SSW 23:05:58 13° ESE visible
